ECMWFFLT1_925_thetae_132.txt.gz
Theta_e
335 335 335 334 334 334 335 336 337 338 338 338 338 338 338 337 336 336 336 336 336 335 334 334 334 333 333 332 330 330 329 327 327 326 322 320 319 317 316 317 320 319 314 311 311 310 311 311 305 304 305 305 305 303 302 301 300 301 302 302 302 300 300
335 335 335 335 334 335 336 337 337 338 338 338 338 337 337 336 336 336 336 336 335 334 334 333 333 333 332 332 331 329 329 328 327 327 325 323 322 320 318 318 320 317 312 311 310 308 309 312 309 305 303 303 303 303 302 302 301 301 301 302 301 300 301
335 335 335 335 335 336 337 337 337 338 338 338 338 337 336 336 336 336 335 335 335 334 333 333 332 332 332 332 332 331 330 328 327 326 326 325 324 323 320 319 319 316 312 308 306 306 306 306 308 305 302 303 304 302 302 302 302 301 302 302 301 300 301
335 335 335 335 336 337 337 337 337 338 338 337 337 336 336 336 336 336 335 334 334 333 332 332 332 332 331 331 331 330 330 328 327 326 325 325 324 323 321 320 320 318 317 313 310 308 305 304 308 306 301 302 303 302 302 303 302 302 302 301 301 301 301
335 335 335 336 336 337 337 337 337 337 337 336 336 336 335 335 335 335 334 334 333 333 332 332 332 331 330 330 329 329 329 328 327 326 326 324 324 323 322 320 321 321 322 322 319 315 310 307 308 305 301 301 303 302 302 302 302 302 301 301 301 301 301
336 336 336 336 336 337 337 337 337 337 336 336 335 335 335 334 334 334 334 334 333 333 332 331 331 330 329 328 329 328 328 327 327 326 326 325 324 325 324 322 322 322 322 322 321 319 314 308 306 304 301 302 304 302 301 301 302 302 302 301 301 301 301
336 336 336 336 336 337 336 337 337 337 336 336 335 335 335 334 334 334 333 333 333 332 332 330 329 328 328 327 327 327 327 326 326 326 325 325 325 324 324 323 322 323 323 321 319 319 315 309 307 306 303 303 304 301 299 300 301 302 302 302 301 301 300
336 336 336 336 336 336 337 337 337 337 336 336 335 335 334 334 333 333 333 332 332 331 330 329 328 327 326 326 326 325 325 324 324 324 324 324 324 324 324 324 323 323 321 318 316 316 315 312 309 308 305 305 305 302 299 300 300 301 302 301 301 300 300
336 336 336 336 336 336 336 336 336 336 336 335 335 334 334 333 333 332 332 331 330 329 328 327 326 326 325 325 324 323 322 322 321 321 322 322 322 322 321 321 319 316 315 314 313 312 312 311 310 309 307 306 306 304 303 302 301 301 301 300 299 299 299
336 336 336 336 336 336 336 336 336 336 336 335 335 334 333 333 332 331 331 329 328 327 326 326 325 324 324 323 323 322 321 320 319 319 318 318 318 317 315 314 311 310 310 311 311 311 310 309 309 308 307 306 305 306 305 305 304 302 301 301 299 297 298
336 336 336 336 336 336 336 336 336 335 335 335 334 334 333 332 331 331 329 328 327 326 324 324 323 323 323 322 321 321 320 319 318 317 316 315 314 313 311 310 309 309 309 309 310 309 309 309 308 307 307 306 305 305 303 304 305 302 301 302 300 298 297
336 336 336 336 336 336 336 336 335 335 335 334 334 333 332 332 331 330 328 327 325 324 323 322 322 321 321 320 320 319 319 318 317 316 315 313 312 311 310 309 308 308 308 308 308 308 308 308 308 308 307 305 305 305 303 302 305 303 301 301 300 298 297
335 336 336 336 336 336 336 336 335 335 335 334 334 333 332 331 330 329 327 326 324 323 322 321 320 319 318 318 317 316 316 316 315 314 313 312 310 310 309 309 308 308 307 307 306 306 306 306 307 307 307 306 305 305 303 302 304 303 301 300 299 298 297
335 336 336 336 336 336 336 336 335 335 335 334 334 333 332 330 329 328 326 325 324 322 321 320 318 317 316 315 314 313 314 314 314 313 312 311 310 309 309 308 308 307 306 306 304 303 303 304 305 306 307 307 306 304 303 302 302 301 300 299 298 297 297
335 335 336 335 335 336 336 335 335 335 334 334 334 333 331 329 328 327 326 324 323 321 320 319 317 316 314 313 311 311 312 313 312 311 311 310 309 308 308 308 307 305 304 303 302 301 301 302 304 305 306 306 306 304 302 302 302 301 300 299 297 297 297
335 335 335 335 335 335 335 335 334 334 334 334 333 332 330 329 327 326 325 323 322 320 319 318 316 315 313 311 310 310 311 311 311 311 310 309 309 308 307 306 305 304 303 302 301 300 300 300 302 303 305 305 304 303 302 302 302 301 299 298 297 297 296
334 335 335 334 334 335 335 334 334 334 334 333 332 331 329 328 327 325 324 322 321 319 319 317 316 314 312 311 310 309 310 310 310 310 309 309 308 307 306 305 304 303 303 301 301 300 299 299 299 301 302 303 304 303 302 302 302 301 299 298 298 297 296
335 335 335 334 334 334 334 334 333 333 333 332 331 330 328 326 325 325 323 322 321 320 319 318 316 314 312 310 310 310 309 309 309 309 308 308 307 306 305 304 303 303 302 301 301 300 299 299 298 299 300 301 302 302 302 301 301 300 299 299 298 297 295
335 335 335 334 334 334 334 334 333 333 332 331 331 329 328 326 325 324 323 322 320 320 319 318 316 314 312 310 310 310 309 309 308 308 307 307 306 305 304 304 303 302 302 302 301 301 300 300 299 299 298 299 300 300 300 299 299 299 299 299 298 296 295
335 335 335 334 334 333 333 333 333 332 332 331 330 329 328 326 325 324 323 321 321 320 319 318 316 313 311 310 309 309 308 308 308 307 307 306 305 304 304 303 303 302 302 302 301 301 301 300 300 300 299 299 299 299 299 299 299 299 299 298 297 295 295
335 335 334 333 333 333 332 332 332 331 331 331 330 330 329 327 326 324 322 321 321 320 318 317 315 312 310 309 309 308 308 307 307 306 306 305 304 303 302 302 302 302 302 301 301 301 301 301 300 300 299 299 299 299 299 298 298 299 298 297 295 295 296
334 334 334 333 333 332 331 331 331 330 331 331 331 330 330 328 327 324 322 320 320 319 318 316 315 312 310 309 308 307 307 307 306 306 305 304 303 302 302 302 302 302 302 302 301 301 301 301 300 298 298 299 299 299 298 298 298 298 297 295 294 295 297
334 334 333 333 332 332 331 330 329 329 330 331 331 330 329 328 326 324 322 321 319 318 317 316 314 312 310 308 307 307 306 306 306 305 304 303 303 302 303 302 302 302 302 302 301 302 301 300 299 298 299 299 299 298 296 296 297 296 294 294 294 296 297
334 333 333 332 332 331 330 329 329 330 331 330 329 329 329 327 325 323 323 321 320 318 317 316 313 311 309 308 307 306 306 306 305 305 304 303 303 303 303 303 303 303 302 302 302 301 300 300 299 300 300 300 299 297 295 295 295 294 293 294 295 296 297
334 333 333 332 332 331 330 329 328 328 329 328 327 328 327 326 325 323 322 321 320 319 318 316 313 310 308 307 306 306 305 305 305 304 304 303 304 304 303 303 303 303 302 303 302 301 300 300 300 300 299 299 298 296 294 294 294 294 294 294 295 297 297
334 333 333 331 331 330 329 327 326 326 327 327 325 326 326 325 323 323 321 320 320 319 317 315 312 309 308 307 306 306 305 305 304 304 303 303 304 303 303 303 303 302 303 302 300 300 300 301 301 299 297 298 297 294 294 296 297 297 296 295 295 297 297
334 333 332 331 330 329 328 327 326 326 326 325 323 324 325 323 321 322 321 320 319 318 317 315 311 309 307 307 306 306 305 304 304 303 303 303 303 303 303 302 302 302 302 301 300 301 301 301 301 299 297 297 295 294 296 299 299 299 299 298 297 297 297
334 333 332 331 330 328 327 326 325 325 325 324 323 324 324 322 321 322 321 320 319 317 316 315 311 308 307 307 306 305 305 305 304 304 303 303 303 303 302 301 301 301 301 300 300 301 302 301 302 299 296 295 294 295 298 300 300 300 301 300 299 298 297
333 332 331 330 329 327 326 326 326 325 323 322 321 322 322 321 321 322 321 319 318 317 316 314 310 308 307 307 306 305 305 305 304 304 303 303 303 303 301 300 301 301 301 299 299 301 301 302 301 299 295 293 294 297 299 300 300 300 301 301 301 300 299
333 332 330 329 328 326 325 325 326 325 322 319 319 319 319 318 319 322 322 320 318 317 315 313 310 308 307 307 306 306 305 305 304 304 303 303 303 303 301 301 301 302 301 299 299 301 301 300 300 297 293 294 296 298 300 300 300 301 301 301 301 301 300
333 331 330 329 327 326 326 325 325 324 321 319 319 318 318 317 317 320 321 321 319 318 315 313 309 307 307 307 306 306 305 305 304 304 304 303 303 302 301 302 302 302 301 299 300 301 300 298 298 296 293 295 298 299 299 300 300 301 301 301 301 301 301
333 331 330 329 327 327 327 325 323 322 321 320 318 318 318 318 318 320 321 320 319 317 315 312 309 307 307 307 306 306 305 305 304 304 303 303 303 302 302 302 303 303 301 300 301 301 298 296 296 295 294 296 298 298 298 299 300 300 301 301 301 301 300
332 331 330 329 328 328 326 323 322 321 319 319 318 317 317 317 318 320 319 318 317 316 315 312 309 307 307 307 306 306 305 304 304 304 303 303 303 303 303 303 303 302 301 300 302 300 296 294 295 295 295 297 298 297 298 299 299 300 300 301 301 300 298
333 331 330 329 329 328 325 323 322 321 319 318 317 316 315 314 316 318 317 315 315 315 314 312 309 307 307 306 306 306 305 305 304 304 304 303 303 303 303 302 302 301 300 301 302 298 294 292 293 294 295 296 296 297 298 298 298 299 300 300 300 300 298
332 331 330 329 328 326 324 322 321 320 319 317 316 315 314 313 313 314 312 311 311 313 313 311 309 308 307 306 306 306 305 305 304 304 304 303 303 303 302 302 301 300 300 302 301 297 292 291 292 293 294 294 296 298 299 297 295 297 299 300 300 300 298
331 330 330 328 326 324 322 320 320 320 318 316 314 314 313 312 311 309 308 308 309 311 312 311 309 308 307 306 306 306 305 305 305 304 304 303 303 303 303 302 301 300 300 302 302 298 294 292 292 294 296 296 299 301 300 297 295 295 298 299 299 299 297
328 328 329 328 325 323 321 319 319 319 317 314 313 313 312 310 309 308 308 308 308 308 309 309 308 309 308 306 306 306 306 305 305 304 304 303 303 303 303 302 302 300 300 302 302 300 298 297 297 299 300 300 301 301 300 298 296 296 296 297 296 295 294

ECMWFFLT1_925_thetae_138.txt.gz
Theta_e
341 340 339 338 338 338 338 338 337 338 338 338 338 339 339 339 339 339 341 341 340 341 340 340 341 340 338 336 335 334 334 334 333 333 332 330 329 329 328 327 327 326 326 325 325 326 324 321 318 315 314 312 311 310 309 308 307 306 307 307 307 307 307
341 341 340 339 339 338 338 338 338 338 337 337 338 338 339 339 339 340 341 341 341 341 340 340 340 340 338 336 335 334 334 333 332 331 330 330 330 329 327 327 327 326 325 325 324 325 325 324 321 318 315 314 313 312 310 309 307 306 307 307 307 307 307
343 342 341 340 340 339 338 338 339 338 337 337 338 338 339 339 339 340 341 341 341 340 340 340 340 340 339 337 335 335 334 332 330 328 328 330 330 329 328 327 327 327 326 325 324 324 324 324 323 321 318 316 315 314 311 310 308 307 307 308 308 307 307
344 343 342 341 341 340 339 339 339 338 337 337 338 338 339 340 340 341 341 341 340 340 339 339 340 340 339 337 336 335 334 332 330 328 328 330 330 329 329 328 328 327 327 326 325 324 324 324 323 323 321 318 316 315 313 311 308 307 307 308 308 307 307
344 343 343 342 341 341 340 340 339 338 337 337 338 338 339 340 339 340 340 341 340 340 339 339 339 339 338 338 336 335 334 332 331 330 330 330 330 330 329 329 328 328 328 327 325 325 324 324 323 323 322 319 316 315 314 311 309 308 308 307 307 307 307
345 344 343 342 342 341 340 340 339 338 337 337 338 338 339 339 339 339 340 340 340 339 339 339 338 337 337 337 336 335 335 333 332 331 331 331 330 330 330 329 329 329 328 327 326 326 325 324 323 323 322 319 317 315 312 311 309 308 308 307 307 307 307
345 345 344 343 342 341 340 339 339 338 337 337 337 338 338 339 339 339 339 339 339 339 338 338 336 336 337 336 335 335 334 333 333 332 332 331 330 330 330 329 329 329 329 327 327 326 325 324 323 322 322 319 317 315 312 310 309 308 308 307 307 306 306
345 345 344 343 342 341 340 340 339 338 338 338 338 338 338 338 338 339 339 339 339 339 338 336 335 336 336 335 334 334 333 332 333 332 332 331 330 331 330 329 329 328 328 327 327 326 325 324 322 322 323 320 318 317 313 311 310 309 309 308 307 306 306
344 344 344 343 343 342 341 341 341 340 340 340 339 339 339 338 338 339 339 339 339 338 337 335 335 335 335 333 333 333 332 332 333 332 331 331 331 331 330 330 329 328 328 327 326 326 325 323 321 322 323 321 318 317 314 312 311 310 309 308 307 306 306
345 344 343 343 343 342 342 342 342 341 341 341 340 339 339 338 338 339 339 339 338 337 336 335 335 334 333 333 332 332 332 332 332 331 330 330 330 330 330 330 329 328 327 326 326 325 323 322 322 323 322 320 319 317 316 314 313 311 309 308 308 306 305
345 344 343 343 342 342 342 343 343 342 341 340 340 340 338 338 339 339 339 338 337 336 335 335 334 333 333 332 332 332 331 331 330 329 329 329 329 329 329 329 328 327 326 325 325 325 324 323 322 321 319 319 318 317 317 316 314 313 311 309 308 307 305
345 344 343 343 342 342 343 343 343 342 341 340 341 340 339 338 339 339 338 338 337 336 335 334 333 333 332 332 331 331 330 329 328 328 328 327 327 327 327 327 327 326 325 325 324 323 322 320 319 317 317 317 317 316 316 316 315 314 312 310 309 306 304
344 344 343 342 342 342 343 343 343 343 342 341 341 340 339 338 338 338 338 337 336 335 335 334 333 332 331 331 330 330 329 328 327 327 326 326 325 325 325 326 325 324 323 322 321 319 317 316 316 316 315 315 315 315 315 315 314 314 312 311 309 306 304
345 344 343 342 342 342 342 343 343 343 342 341 340 340 339 338 338 337 337 337 336 335 334 333 332 330 330 329 329 328 328 326 325 326 325 324 323 323 323 324 323 322 320 318 317 316 315 315 315 314 314 314 314 314 314 313 313 314 313 311 308 306 304
345 344 343 342 342 342 342 342 342 343 343 341 340 339 339 338 337 337 337 336 335 335 334 333 331 330 329 328 328 327 326 325 324 324 324 323 321 321 321 321 320 319 317 315 315 315 314 314 313 312 313 313 312 313 313 311 311 314 313 310 307 306 305
345 344 343 342 342 341 341 342 342 342 342 341 339 339 338 338 337 337 336 336 335 334 333 332 330 329 329 328 327 326 325 324 323 323 322 321 320 320 320 319 318 317 315 315 315 314 313 313 311 311 311 311 311 312 312 311 311 313 313 310 307 306 306
344 344 343 342 342 341 341 341 341 341 341 340 339 339 338 338 337 337 336 335 335 334 332 331 330 329 329 328 327 326 325 323 322 322 321 320 319 318 319 318 317 316 314 314 315 313 312 312 310 310 310 310 311 312 312 311 312 312 311 310 308 306 306
344 344 343 342 341 341 341 341 341 341 341 340 339 338 338 337 336 336 335 335 335 333 331 330 329 328 327 327 326 325 324 322 321 320 319 318 317 317 317 317 316 315 314 314 314 312 311 310 309 309 309 309 310 312 311 311 311 310 309 309 308 307 306
344 343 343 342 341 340 341 341 340 340 340 339 338 338 337 336 335 335 335 334 334 333 331 329 328 327 326 325 325 324 322 321 320 318 317 317 316 316 316 316 315 314 313 314 313 311 310 309 308 309 309 308 310 311 310 309 309 309 308 308 308 307 306
344 343 342 342 341 340 340 340 340 340 339 339 338 337 337 335 334 335 335 334 334 333 331 330 328 326 325 324 324 323 321 319 318 317 316 316 315 315 315 315 315 314 313 313 312 311 310 308 308 309 309 309 309 308 307 307 308 308 308 308 308 307 306
343 342 342 341 340 340 340 340 339 339 339 338 338 337 336 335 334 334 334 333 333 332 330 329 327 326 324 324 323 322 320 319 317 316 315 315 315 314 314 314 314 313 312 312 311 310 308 307 308 309 310 308 307 306 307 307 307 307 307 307 307 306 305
342 342 341 341 340 339 339 339 339 338 338 338 337 337 335 334 333 333 332 332 331 330 329 328 326 325 324 323 322 321 320 318 317 316 315 314 314 314 314 314 313 312 311 310 309 308 307 307 308 309 307 305 305 306 307 307 306 306 306 306 306 305 305
341 341 341 340 339 339 339 339 338 338 338 337 337 336 335 333 333 332 330 329 329 328 327 327 325 324 323 323 322 320 319 318 317 315 314 314 314 313 313 313 312 311 309 308 306 305 304 304 304 305 305 304 305 306 307 306 306 305 305 305 305 305 304
341 340 340 339 339 338 338 338 338 338 337 336 336 336 334 333 332 331 330 328 328 327 326 326 325 324 324 322 321 320 319 318 316 315 314 313 313 313 312 312 311 308 306 305 303 302 301 300 300 301 302 304 305 306 306 306 305 305 305 305 305 304 303
341 340 339 339 338 338 338 338 338 338 337 336 336 335 334 332 331 330 329 328 327 326 326 327 328 326 324 322 320 319 319 318 316 314 314 313 312 312 312 311 311 308 305 305 303 302 301 300 299 300 300 300 301 302 305 306 306 305 305 304 304 304 303
340 339 339 339 338 337 338 337 338 338 337 336 336 334 333 331 330 329 328 327 327 326 326 328 329 327 324 323 320 318 318 317 315 314 313 312 312 312 311 311 310 309 306 305 304 303 302 300 300 300 300 299 298 299 301 303 304 305 305 304 304 304 303
339 339 339 338 337 337 337 338 338 337 336 335 334 333 332 331 329 329 328 328 327 327 326 327 328 327 324 322 319 318 318 316 315 314 313 312 312 311 311 311 310 309 308 305 305 306 304 302 301 301 301 301 300 299 299 299 300 301 302 303 304 303 303
339 339 338 337 337 337 338 338 338 337 336 335 334 333 332 330 329 328 328 328 328 326 325 327 328 327 324 322 319 317 317 316 314 313 312 312 312 311 311 310 309 310 310 307 305 306 306 304 304 304 303 304 303 302 301 299 299 298 298 300 302 303 303
339 338 337 337 337 337 338 338 337 336 335 334 334 333 331 329 328 328 328 328 328 325 325 327 329 327 324 322 319 316 315 315 314 313 312 311 311 311 310 310 309 310 310 308 306 306 306 305 306 306 305 305 304 304 303 301 299 298 297 299 302 303 303
339 337 337 336 337 337 338 337 337 335 334 334 334 333 331 328 327 328 327 327 327 325 324 326 328 327 324 322 317 314 315 315 313 312 312 311 311 311 310 309 309 310 311 309 306 304 303 305 307 307 306 306 305 305 305 302 298 296 295 298 300 301 302
338 337 336 336 337 337 337 337 336 335 334 334 334 332 330 328 327 327 327 327 327 326 324 326 328 327 324 321 317 314 314 314 312 312 312 311 310 310 309 309 310 311 310 308 305 302 301 303 306 306 306 306 306 305 305 303 299 295 294 296 298 299 300
338 337 336 336 337 337 336 336 336 335 334 334 334 333 331 328 326 326 327 327 327 326 325 327 328 327 324 321 316 314 314 314 312 312 311 310 310 310 310 310 310 309 308 306 304 302 300 301 304 306 306 306 307 305 304 304 301 298 297 298 299 300 300
338 338 337 337 336 336 336 336 336 335 334 333 334 333 331 328 325 326 326 326 326 325 325 326 327 325 324 321 316 314 314 313 312 312 311 310 310 310 310 310 308 306 305 305 302 300 299 300 302 306 306 306 306 306 304 304 303 301 301 301 302 303 303
338 337 337 336 335 335 336 336 336 335 334 333 334 333 331 329 327 326 325 324 324 324 324 325 325 324 322 320 316 313 313 313 312 311 311 310 310 310 310 309 307 304 303 302 299 299 300 300 300 304 307 306 306 305 303 303 303 302 302 303 304 304 305
338 337 336 336 336 335 335 336 336 335 334 334 333 332 330 328 328 327 324 322 323 322 321 323 325 324 322 319 315 312 313 313 312 311 311 310 309 309 309 309 308 305 302 299 298 299 301 300 299 302 305 306 305 303 302 303 304 303 301 302 303 303 303
337 338 337 336 336 336 336 337 337 336 335 334 332 330 328 326 326 327 324 321 321 320 319 321 323 323 321 318 314 312 312 312 312 311 311 310 309 309 309 309 309 306 301 299 299 300 301 301 299 301 303 304 304 302 301 302 303 302 301 301 301 302 303
338 338 337 337 337 337 337 337 336 335 335 334 331 329 326 325 325 324 322 320 319 318 317 318 319 320 320 318 314 311 310 311 310 309 308 307 307 307 308 309 308 306 302 301 300 301 301 302 301 301 301 302 302 300 299 300 301 301 302 302 301 302 303

ECMWFFLT1_925_thetae_141.txt.gz
Theta_e
343 343 342 340 336 334 335 335 334 335 337 337 337 338 339 339 339 340 342 343 343 343 342 340 341 342 341 340 339 338 338 338 339 338 336 334 334 333 332 332 333 333 331 329 329 329 328 326 322 320 318 316 314 314 313 312 310 310 310 310 310 310 310
343 343 343 339 336 333 331 333 334 336 338 338 338 339 339 339 340 341 343 343 343 342 341 340 340 342 342 341 340 339 339 339 338 338 337 335 334 334 333 333 333 332 330 329 329 329 329 328 324 322 320 317 316 315 314 313 312 310 310 310 309 309 310
344 343 343 340 337 335 334 336 337 338 338 338 338 338 339 340 340 341 342 343 343 343 341 340 340 340 340 341 340 339 339 338 337 337 337 336 335 335 333 333 332 331 330 330 328 328 328 328 326 323 322 320 318 317 316 314 314 311 310 310 310 310 310
344 343 343 342 341 340 339 339 339 339 338 338 338 338 340 340 340 341 342 342 343 343 341 340 340 339 339 339 338 338 338 336 337 338 337 336 335 334 333 332 332 330 330 330 328 327 326 327 326 325 324 322 320 319 318 316 315 312 310 310 310 310 310
345 344 343 343 342 341 340 340 339 339 338 338 338 339 340 341 341 341 343 343 342 342 341 340 339 339 339 338 337 338 338 336 337 337 336 335 334 334 334 333 332 331 330 330 329 327 326 326 325 325 325 323 322 321 320 317 315 313 311 310 310 311 310
347 345 344 344 343 342 341 340 340 340 339 338 338 339 340 341 341 342 342 342 342 341 341 340 339 339 338 338 338 339 339 337 337 337 336 335 334 334 334 333 332 331 330 330 329 327 327 326 326 325 325 324 323 322 320 317 316 314 312 310 310 310 310
348 346 345 344 344 343 342 342 341 340 339 338 338 338 340 341 342 342 342 342 342 341 340 339 338 339 338 337 338 340 339 338 337 337 337 336 335 335 334 333 332 331 331 330 329 328 327 327 327 326 325 324 323 322 319 317 315 314 312 311 310 310 309
348 347 346 345 345 343 342 342 341 340 340 339 338 338 339 340 342 342 342 343 342 341 340 338 338 338 338 338 339 340 340 339 338 337 336 336 335 335 334 334 333 331 331 330 329 328 327 327 327 326 325 325 323 322 320 317 315 313 312 311 310 309 309
348 348 347 346 345 344 343 342 342 341 340 339 338 338 338 340 341 342 343 343 341 341 340 339 339 338 338 339 338 338 339 339 338 337 337 336 335 335 334 333 333 332 331 330 330 328 328 327 327 326 325 324 324 323 321 319 316 313 312 311 310 309 309
348 348 348 347 346 345 344 342 342 342 340 339 339 339 339 340 341 342 342 342 342 341 339 339 339 338 337 338 337 336 337 336 336 337 337 337 335 334 333 333 333 332 331 330 329 328 328 327 327 326 324 323 323 323 322 320 318 315 313 311 311 310 308
349 349 348 348 346 346 345 343 343 342 341 341 341 340 340 340 341 342 341 342 341 340 339 338 338 338 337 337 335 335 336 335 336 337 336 335 334 333 333 333 332 332 331 330 329 328 327 327 326 324 323 323 323 322 321 320 319 318 315 312 311 310 309
349 348 348 348 347 346 345 344 344 343 343 342 342 341 341 340 341 342 341 340 340 340 340 339 337 338 337 336 335 335 335 334 335 335 334 333 333 333 333 332 332 331 331 330 329 327 327 327 325 323 324 324 323 322 321 319 319 318 316 313 311 310 309
348 348 348 348 347 346 345 345 344 345 344 343 343 342 341 340 340 341 341 340 340 341 340 338 338 337 336 336 336 335 335 334 334 334 333 332 331 331 331 331 331 331 331 329 328 327 326 325 324 324 324 322 320 320 319 319 318 318 316 314 313 311 309
348 348 348 348 347 346 345 345 344 345 345 344 343 342 342 341 340 341 341 341 341 341 339 338 337 337 336 336 335 334 335 334 333 333 332 331 330 330 330 330 330 330 329 328 326 325 325 324 324 322 320 318 318 318 318 318 317 317 317 315 314 311 308
348 348 348 348 347 346 345 345 345 345 346 345 343 343 343 342 340 341 341 341 341 340 339 338 337 337 336 336 335 334 334 333 332 331 331 330 330 329 328 328 328 328 327 325 325 324 323 322 320 318 316 316 317 316 317 317 315 316 318 316 314 311 308
347 347 348 347 347 346 345 345 345 345 346 345 344 343 343 342 341 340 340 340 340 339 338 338 337 337 336 335 334 334 333 333 332 331 330 330 329 328 327 326 327 326 325 325 324 322 320 318 317 316 315 314 315 315 315 315 313 313 317 317 314 311 309
347 347 347 347 347 346 345 345 345 345 345 345 344 344 343 342 341 340 340 340 341 340 338 338 337 337 336 334 334 333 333 332 332 331 330 329 328 327 326 326 327 326 325 324 322 320 318 317 316 315 314 313 314 313 314 315 312 312 316 317 313 310 309
347 347 347 347 347 346 346 345 345 345 345 345 345 343 343 341 340 340 340 340 341 340 339 338 337 336 335 334 334 333 332 332 331 331 330 328 328 327 326 326 326 325 323 322 321 319 317 317 316 314 313 313 313 313 314 314 312 312 315 316 313 309 309
346 347 347 348 347 346 345 345 345 345 344 345 345 343 343 341 340 340 339 340 341 339 338 338 337 336 335 334 333 333 332 331 331 330 329 328 327 326 325 324 324 324 322 320 320 319 317 317 315 313 312 313 311 312 314 314 313 313 313 312 311 310 308
346 347 347 348 348 346 345 345 345 344 344 345 344 343 342 342 340 339 339 340 340 339 338 338 337 336 334 333 333 332 332 331 330 329 328 327 326 324 323 323 323 322 321 319 319 318 317 316 314 312 312 312 310 312 314 313 312 312 310 309 311 310 308
346 347 347 347 348 347 345 345 345 344 344 344 344 343 342 342 341 339 339 339 339 339 338 338 336 335 334 333 332 332 332 331 329 328 326 325 324 322 321 321 321 321 319 318 318 318 316 315 313 312 312 311 312 314 314 311 309 310 310 310 311 310 309
345 345 346 347 347 347 346 345 344 345 344 343 343 343 342 341 341 339 338 338 339 338 338 337 336 334 333 333 332 331 331 330 328 327 325 324 322 321 320 319 319 320 318 317 317 316 315 313 311 311 312 312 313 313 310 308 308 309 310 310 310 310 308
345 345 345 346 346 347 346 345 345 344 344 343 343 342 342 341 340 339 338 338 338 339 338 337 336 334 333 332 331 331 330 329 327 326 324 322 321 320 319 318 319 318 317 315 315 314 313 311 309 311 312 313 312 309 308 308 309 309 310 310 309 309 308
345 345 345 345 346 347 346 344 344 344 343 343 343 342 341 341 339 339 338 337 338 338 338 337 336 334 333 331 330 330 329 328 326 325 323 322 320 320 319 318 318 317 315 314 313 312 311 309 308 311 312 310 308 307 308 310 309 309 309 309 308 308 308
345 345 346 346 346 346 345 344 344 344 344 343 343 342 341 341 339 338 338 338 337 337 338 337 336 334 332 330 329 329 329 327 326 325 323 321 320 319 318 318 318 316 314 313 312 311 309 308 308 310 309 306 305 307 309 310 310 309 308 308 308 308 308
345 345 345 344 345 345 344 344 343 344 343 342 342 342 341 341 339 338 338 338 337 337 337 336 335 333 332 329 328 328 328 327 325 324 323 320 320 319 318 317 317 316 314 312 311 310 308 306 307 307 305 304 305 307 308 308 309 310 309 308 308 307 307
344 344 344 343 344 344 344 343 343 343 342 341 342 342 341 341 339 338 338 337 337 336 335 334 333 332 331 329 327 327 328 327 325 324 322 320 319 318 317 317 317 316 313 311 310 309 307 305 303 301 301 303 304 305 306 306 307 308 308 308 308 307 307
344 344 343 343 343 343 343 342 342 342 341 341 341 341 340 340 339 338 337 337 337 336 334 332 331 331 330 328 326 326 328 327 326 324 322 320 319 318 317 316 316 315 313 310 308 308 307 305 303 301 302 303 303 304 303 302 304 306 306 306 307 307 307
343 343 343 343 343 342 342 342 341 341 341 341 341 340 340 339 339 338 337 336 336 336 333 331 331 331 329 328 327 326 327 327 325 323 322 320 318 317 316 315 315 314 313 310 308 307 307 306 305 304 304 305 305 305 303 301 301 304 305 305 305 306 307
344 343 342 342 343 342 342 341 341 341 341 341 341 340 339 339 338 337 337 336 336 334 332 330 331 330 329 328 327 325 325 326 325 323 321 319 317 316 315 315 314 314 313 311 308 306 307 307 306 306 306 306 306 307 306 304 301 301 302 302 302 303 305
343 343 342 342 342 342 341 340 340 340 341 341 340 339 338 338 337 337 336 335 335 334 331 330 330 330 329 328 327 324 323 325 324 323 321 319 317 316 315 314 313 313 314 313 309 306 307 307 307 307 307 308 308 307 308 307 304 300 299 299 300 301 302
342 342 341 342 342 341 340 340 340 340 340 340 339 338 338 337 337 337 336 335 334 333 332 329 329 330 329 328 327 324 323 324 324 323 321 318 316 315 314 314 312 312 313 313 309 306 306 306 308 309 309 309 309 308 308 309 306 303 300 298 299 299 300
342 342 341 342 342 340 340 340 340 340 340 340 339 338 337 337 337 336 335 334 333 333 332 330 329 330 330 328 326 324 322 323 324 322 319 317 316 315 314 313 312 310 312 313 309 306 305 305 308 311 310 309 309 309 308 309 308 305 301 299 299 300 300
342 342 341 341 340 340 340 340 341 341 340 340 339 338 337 337 336 335 334 333 332 332 331 330 329 329 329 327 326 323 321 322 322 320 318 316 315 314 313 313 311 309 311 312 309 307 305 303 304 309 309 308 309 309 308 308 307 305 302 301 300 301 302
343 342 341 340 340 340 340 340 341 341 340 339 338 338 337 336 335 334 333 332 332 332 330 330 329 329 328 327 326 324 321 320 320 318 317 316 315 313 313 313 312 310 310 310 308 306 304 300 300 305 309 308 309 309 308 307 307 305 304 303 303 302 303
343 342 341 340 340 340 340 340 340 340 339 338 338 338 337 336 334 334 332 331 331 331 329 329 329 329 328 326 326 324 322 320 319 317 316 316 314 312 312 314 313 311 309 308 305 304 302 299 298 303 307 308 307 307 306 306 306 306 305 304 304 304 304
342 342 341 340 340 340 340 340 340 339 338 338 337 337 338 336 334 333 332 331 331 329 327 326 327 328 327 326 325 324 321 320 318 316 316 315 314 312 313 313 311 310 308 306 302 300 300 299 298 301 305 306 306 306 305 304 305 306 306 304 304 304 304

ECMWFFLT1_925_thetae_144.txt.gz
Theta_e
342 341 341 340 340 339 335 334 336 338 339 339 338 338 338 338 339 340 341 342 342 342 343 342 342 340 338 338 338 338 337 335 334 335 335 334 334 334 333 334 334 333 332 329 329 329 328 328 324 321 319 316 315 314 313 312 312 311 310 310 310 309 310
343 342 342 340 340 339 337 335 337 338 338 339 338 338 338 338 339 339 340 341 342 343 343 343 342 341 339 339 337 337 336 335 334 334 334 333 334 335 334 334 334 334 334 332 330 329 330 331 328 324 322 318 316 315 313 313 312 311 311 311 310 310 310
344 343 341 340 340 338 336 336 337 338 338 338 338 337 338 338 339 339 339 341 342 343 343 342 342 341 340 339 337 336 336 335 335 333 333 333 334 336 335 334 334 334 334 333 331 330 330 331 330 326 322 320 319 316 314 314 313 312 311 311 311 310 310
345 344 342 340 339 338 336 336 337 338 337 337 337 337 337 338 339 339 340 341 342 343 342 342 342 340 340 339 338 337 336 335 334 334 333 333 335 336 335 334 334 334 334 332 331 331 330 330 331 328 324 320 319 317 316 314 314 314 312 311 311 310 310
345 344 343 342 340 338 336 337 337 336 337 337 338 337 337 338 339 339 340 341 342 343 342 342 341 339 339 339 338 337 337 336 335 335 335 333 334 335 334 333 334 333 333 332 331 330 329 328 329 329 326 323 321 319 317 316 314 315 314 311 311 311 310
346 345 344 343 339 337 335 335 335 335 337 337 338 338 338 339 340 340 340 341 342 343 342 342 340 339 340 339 338 338 338 338 337 336 336 335 334 334 334 334 334 333 332 331 330 330 329 326 326 328 327 325 325 322 318 317 316 316 315 312 311 311 310
346 345 345 342 338 336 334 334 335 337 338 339 338 338 339 339 340 340 340 341 342 342 343 342 341 339 339 338 338 338 338 338 337 337 337 336 335 335 335 335 334 334 333 331 330 329 329 327 326 328 327 327 326 321 318 318 317 316 315 313 311 311 311
347 346 346 343 340 339 338 337 338 339 339 339 339 339 338 339 340 341 341 341 342 342 342 341 341 340 339 338 338 338 338 337 336 336 337 337 336 336 335 335 335 334 333 331 331 330 329 328 327 327 327 329 330 325 319 318 317 316 315 314 312 311 311
347 347 346 345 343 342 342 341 341 340 340 340 339 339 338 339 340 341 341 342 342 342 341 341 340 339 338 338 338 338 337 336 336 337 337 337 336 336 336 335 335 334 333 332 331 330 329 329 328 327 327 328 331 330 325 323 320 317 314 313 312 311 311
348 347 347 346 345 344 343 342 342 341 340 340 339 338 339 339 340 341 342 343 343 342 341 340 340 339 338 338 338 338 336 337 337 336 337 337 336 337 336 335 335 334 334 333 331 331 330 329 328 328 327 326 328 330 329 330 326 319 315 313 312 311 310
349 348 347 347 346 344 344 343 343 342 341 340 340 339 338 338 340 341 342 343 343 343 341 340 340 339 338 338 338 338 336 336 337 337 337 337 337 336 336 336 335 335 334 333 332 331 330 330 328 328 327 326 326 327 327 330 328 321 316 314 312 311 310
350 350 348 347 347 346 345 344 344 342 342 341 340 339 339 339 340 341 342 343 343 343 342 340 340 339 338 338 338 338 337 336 337 337 337 337 337 337 336 336 336 334 334 333 332 331 330 329 328 327 327 327 326 325 324 326 326 323 318 314 312 311 310
350 350 349 348 348 347 346 344 344 344 343 342 341 340 339 339 339 341 342 343 343 343 342 340 340 339 338 338 339 338 338 337 337 336 336 336 336 336 336 335 335 333 333 333 331 331 330 328 328 327 326 326 325 325 323 323 324 323 319 314 312 311 310
351 350 350 349 349 348 347 345 344 344 343 342 341 341 340 339 340 341 342 343 343 343 342 341 340 339 339 338 338 338 337 336 336 336 335 335 335 335 334 333 333 333 333 333 331 330 329 328 327 327 326 326 325 324 323 322 322 321 317 314 312 311 310
351 350 350 349 349 348 348 347 345 344 344 343 342 342 341 340 341 341 341 342 343 343 342 341 340 339 339 339 338 337 336 336 335 335 335 335 334 333 333 332 332 332 332 332 332 331 329 328 327 326 326 326 324 323 322 320 320 320 318 315 312 311 309
350 350 350 350 350 349 348 347 346 345 345 344 344 343 342 341 341 341 341 341 342 342 342 342 340 339 339 339 338 337 336 335 335 335 335 334 333 333 332 331 331 331 331 331 330 330 329 327 326 325 325 325 324 320 318 319 319 319 318 316 313 310 308
350 349 349 350 349 349 349 348 347 346 345 345 344 344 343 342 342 341 341 341 342 341 342 342 341 339 339 338 338 337 336 335 335 335 334 334 333 332 331 330 329 329 330 330 328 329 328 326 325 325 324 322 321 318 317 318 318 317 317 317 315 312 309
350 349 350 349 350 350 349 348 347 346 346 346 345 345 344 343 342 342 341 341 342 341 342 342 341 340 339 338 337 337 336 335 334 335 334 332 332 332 331 330 329 329 329 329 328 328 327 325 324 323 321 318 317 316 316 316 317 315 316 317 316 313 311
350 349 349 350 349 350 349 348 348 346 346 346 346 346 345 344 343 342 341 341 341 341 342 342 340 339 339 338 337 337 336 335 334 333 333 332 331 331 331 330 329 328 327 327 327 326 325 324 322 319 318 316 315 315 314 315 316 314 314 317 316 314 311
350 349 350 349 349 349 349 349 348 346 346 345 346 346 346 345 343 343 342 341 340 340 341 341 340 339 338 338 337 336 335 334 334 333 333 332 331 331 330 329 328 327 327 327 327 325 325 324 321 318 317 316 315 314 314 315 315 313 313 315 315 313 311
349 349 349 349 349 349 349 349 348 346 346 345 346 346 346 345 344 342 342 341 340 340 341 341 340 339 339 338 337 336 334 334 334 333 333 332 331 330 329 329 328 327 326 326 325 325 324 322 319 318 317 314 314 314 313 314 314 313 314 314 312 311 310
348 349 348 349 349 349 349 349 347 347 346 346 346 346 346 345 344 343 341 341 339 340 340 341 340 339 339 337 336 336 334 334 334 333 332 332 331 330 329 328 327 326 326 326 325 324 323 321 319 318 316 313 313 313 313 314 314 313 313 311 310 311 310
348 348 348 349 349 349 349 349 347 347 346 346 345 346 346 345 345 343 342 341 340 339 340 341 340 339 338 337 336 335 334 334 333 333 331 331 330 329 328 327 326 325 324 324 323 322 321 320 318 317 315 313 312 313 314 314 313 312 311 310 310 311 310
348 347 348 348 348 349 349 349 348 346 346 346 345 345 345 345 345 343 343 341 340 339 339 340 340 339 338 337 336 335 334 334 333 332 331 330 329 327 326 326 324 323 322 323 322 320 319 319 318 315 313 312 312 313 315 314 311 309 310 311 311 311 311
347 347 347 348 348 348 349 349 348 347 346 346 345 345 345 345 344 344 343 341 341 340 339 340 339 339 338 337 335 334 333 333 332 331 330 329 328 326 325 324 322 321 321 321 320 319 317 318 316 314 312 312 313 314 314 311 308 308 309 310 310 310 311
346 346 347 348 348 348 349 348 348 347 346 346 346 345 345 345 345 344 343 342 341 339 339 339 339 339 338 336 335 334 333 332 332 331 329 328 327 325 324 323 321 320 320 319 318 318 316 316 315 312 311 312 313 313 311 308 309 309 310 310 310 310 309
347 346 346 347 347 347 348 349 348 346 346 345 346 345 345 345 344 344 343 342 341 340 339 339 339 339 338 336 335 333 332 331 331 330 329 328 327 325 324 322 321 320 319 318 317 316 315 315 313 310 310 312 313 311 309 309 310 311 310 310 310 309 309
346 346 346 346 346 346 347 348 347 346 346 346 345 345 344 344 344 344 342 342 341 340 339 339 339 339 338 336 334 333 331 331 330 329 328 327 326 325 323 322 320 320 319 317 315 314 313 313 311 310 309 310 310 308 307 308 310 310 309 309 309 308 309
344 344 345 345 346 346 347 348 348 347 346 346 345 344 344 344 344 343 342 342 341 340 339 339 339 339 338 336 334 332 331 330 329 328 327 326 325 324 322 321 320 319 319 317 315 313 312 312 310 309 308 308 307 306 305 307 308 308 308 308 308 308 308
341 342 345 346 346 346 347 347 347 346 346 345 345 345 344 344 344 342 342 342 340 340 339 339 338 338 337 336 334 331 331 330 329 327 327 325 325 323 322 321 319 319 318 317 315 313 312 311 309 308 307 306 305 304 304 305 306 307 307 307 307 307 307
341 342 345 346 346 346 346 347 347 346 346 345 344 344 343 343 343 342 342 341 340 339 339 338 338 337 337 336 333 331 331 330 329 327 326 325 324 323 322 320 319 318 317 316 315 313 312 310 308 306 305 304 304 304 304 304 304 305 304 305 306 306 306
341 343 345 347 346 345 345 346 346 346 345 345 344 343 343 343 342 342 342 341 340 339 339 338 336 335 335 334 333 331 330 330 329 328 326 325 324 323 321 319 318 317 317 316 314 312 310 308 306 305 304 304 304 306 306 306 304 302 301 301 303 304 304
341 344 345 345 345 345 345 345 345 345 344 344 343 343 343 342 342 341 341 340 340 339 338 337 335 334 333 332 332 330 329 329 329 328 325 324 324 322 320 319 317 317 316 315 314 312 309 307 306 305 305 305 307 307 307 308 306 302 301 300 300 301 302
340 342 345 345 344 343 344 344 344 344 343 343 343 342 342 341 341 341 340 339 339 338 337 336 335 333 332 332 332 331 329 328 328 327 326 325 323 321 320 318 317 316 315 315 314 312 309 306 306 307 306 306 309 307 304 305 306 305 305 304 301 300 300
338 340 343 345 343 343 344 344 343 343 343 342 342 342 341 340 340 340 339 339 338 337 336 336 335 333 332 332 332 331 328 328 328 327 326 324 323 322 319 318 316 316 314 314 313 312 310 306 307 309 308 308 309 305 302 306 309 308 307 306 302 300 300
340 342 344 344 343 343 344 343 343 343 342 342 341 341 340 340 339 338 338 337 337 337 336 335 334 333 332 331 331 330 327 327 327 327 326 324 323 321 320 317 316 315 314 313 312 312 310 306 306 309 310 309 307 304 305 308 310 308 307 305 302 301 300
341 344 344 343 343 344 343 343 342 342 342 341 341 340 340 339 338 338 337 336 336 335 335 334 334 333 332 331 330 328 326 326 327 327 325 324 323 320 318 317 315 314 314 312 311 311 310 307 306 308 309 308 307 306 308 309 309 307 306 305 303 302 301